• In Russia
  • List of Countries
  • For 7 days
  • Water Temperature
  • Weather Map
  • Weather Widgets
  • user-avatar
    Login

    Hourly Weather Canberra

    Today, 22 February, Saturday

    Time Temperature Precipitation Wind Pressure Humidity
    00:00 +14°C° 0 mm 3 mps 712 mmHg 85%
    01:00 +14°C° 0 mm 3 mps 713 mmHg 85%
    02:00 +13°C° 0 mm 3 mps 713 mmHg 85%
    03:00 +13°C° 0 mm 3 mps 712 mmHg 84%
    04:00 +13°C° 0 mm 2 mps 712 mmHg 84%
    05:00 +14°C° 0 mm 2 mps 713 mmHg 84%
    06:00 +14°C° 0 mm 2 mps 714 mmHg 83%
    07:00 +14°C° 0 mm 2 mps 714 mmHg 83%
    08:00 +16°C° 0 mm 2 mps 714 mmHg 78%
    09:00 +17°C° 0 mm 2 mps 714 mmHg 73%
    10:00 +18°C° 0 mm 2 mps 715 mmHg 68%
    11:00 +19°C° 0 mm 2 mps 714 mmHg 65%
    12:00 +20°C° 0 mm 2 mps 714 mmHg 62%
    13:00 +21°C° 0 mm 2 mps 714 mmHg 59%
    14:00 +22°C° 0 mm 3 mps 714 mmHg 58%
    15:00 +22°C° 0 mm 3 mps 713 mmHg 57%
    16:00 +24°C° 0 mm 3 mps 713 mmHg 57%
    17:00 +21°C° 0 mm 3 mps 713 mmHg 65%
    18:00 +19°C° 0 mm 3 mps 713 mmHg 73%
    19:00 +18°C° 0 mm 3 mps 713 mmHg 81%
    20:00 +17°C° 0 mm 3 mps 714 mmHg 84%
    21:00 +17°C° 0 mm 2 mps 714 mmHg 87%
    22:00 +16°C° 0 mm 2 mps 714 mmHg 89%
    23:00 +16°C° 0 mm 2 mps 714 mmHg 89%

    Tomorrow, 23 February, Sunday

    Time Temperature Precipitation Wind Pressure Humidity
    00:00 +16°C° 0 mm 2 mps 714 mmHg 88%
    01:00 +16°C° 0 mm 2 mps 714 mmHg 87%
    02:00 +16°C° 0 mm 2 mps 714 mmHg 88%
    03:00 +15°C° 0 mm 1 mps 714 mmHg 89%
    04:00 +15°C° 0 mm 1 mps 714 mmHg 90%
    05:00 +15°C° 0 mm 1 mps 714 mmHg 88%
    06:00 +16°C° 0 mm 1 mps 715 mmHg 87%
    07:00 +16°C° 0 mm 1 mps 715 mmHg 85%
    08:00 +19°C° 0 mm 1 mps 715 mmHg 75%
    09:00 +21°C° 0 mm 1 mps 715 mmHg 64%
    10:00 +24°C° 0 mm 1 mps 716 mmHg 54%
    11:00 +25°C° 0 mm 1 mps 715 mmHg 49%
    12:00 +27°C° 0 mm 2 mps 715 mmHg 44%
    13:00 +28°C° 0 mm 2 mps 714 mmHg 40%
    14:00 +28°C° 0 mm 2 mps 714 mmHg 39%
    15:00 +28°C° 0 mm 2 mps 713 mmHg 39%
    16:00 +28°C° 0 mm 2 mps 713 mmHg 39%
    17:00 +26°C° 0 mm 2 mps 713 mmHg 47%
    18:00 +24°C° 0 mm 2 mps 713 mmHg 54%
    19:00 +21°C° 0 mm 3 mps 713 mmHg 62%
    20:00 +20°C° 0 mm 2 mps 713 mmHg 68%
    21:00 +20°C° 0 mm 1 mps 713 mmHg 75%
    22:00 +19°C° 0 mm 1 mps 714 mmHg 81%
    23:00 +19°C° 0 mm 1 mps 714 mmHg 82%

    Day after tomorrow, 24 February, Monday

    Time Temperature Precipitation Wind Pressure Humidity
    00:00 +19°C° 0 mm 1 mps 713 mmHg 83%
    01:00 +19°C° 0 mm 1 mps 713 mmHg 84%
    02:00 +18°C° 0 mm 1 mps 713 mmHg 87%
    03:00 +18°C° 0 mm 1 mps 713 mmHg 90%
    04:00 +16°C° 0 mm 1 mps 712 mmHg 93%
    05:00 +18°C° 0 mm 1 mps 713 mmHg 90%
    06:00 +18°C° 0 mm 1 mps 713 mmHg 87%
    07:00 +17°C° 0 mm 0 mps 713 mmHg 84%
    08:00 +22°C° 0.1 mm 1 mps 713 mmHg 72%
    09:00 +25°C° 0.1 mm 1 mps 714 mmHg 60%
    10:00 +27°C° 0.1 mm 1 mps 714 mmHg 48%
    11:00 +28°C° 0 mm 1 mps 713 mmHg 45%
    12:00 +28°C° 0 mm 1 mps 713 mmHg 42%
    13:00 +29°C° 0 mm 2 mps 712 mmHg 39%
    14:00 +27°C° 0.1 mm 2 mps 712 mmHg 47%
    15:00 +25°C° 0.1 mm 2 mps 711 mmHg 54%
    16:00 +24°C° 0.1 mm 2 mps 710 mmHg 61%
    17:00 +23°C° 0.1 mm 2 mps 711 mmHg 65%
    18:00 +22°C° 0.1 mm 1 mps 711 mmHg 69%
    19:00 +21°C° 0.1 mm 1 mps 711 mmHg 73%
    20:00 +21°C° 0 mm 1 mps 711 mmHg 74%
    21:00 +21°C° 0 mm 1 mps 712 mmHg 75%
    22:00 +20°C° 0 mm 1 mps 712 mmHg 77%
    23:00 +20°C° 0 mm 1 mps 712 mmHg 78%

    25 February, Tuesday

    Time Temperature Precipitation Wind Pressure Humidity
    00:00 +19°C° 0 mm 1 mps 711 mmHg 80%
    01:00 +19°C° 0 mm 1 mps 711 mmHg 82%
    02:00 +19°C° 0 mm 1 mps 711 mmHg 83%
    03:00 +17°C° 0 mm 0 mps 711 mmHg 84%
    04:00 +17°C° 0 mm 0 mps 710 mmHg 85%
    05:00 +17°C° 0 mm 0 mps 710 mmHg 84%
    06:00 +17°C° 0 mm 0 mps 711 mmHg 83%
    07:00 +17°C° 0 mm 0 mps 711 mmHg 81%
    08:00 +20°C° 0 mm 0 mps 711 mmHg 70%
    09:00 +24°C° 0 mm 1 mps 711 mmHg 59%
    10:00 +27°C° 0 mm 2 mps 711 mmHg 48%
    11:00 +28°C° 0 mm 2 mps 710 mmHg 44%
    12:00 +29°C° 0 mm 2 mps 710 mmHg 40%
    13:00 +30°C° 0 mm 2 mps 709 mmHg 36%
    14:00 +30°C° 0 mm 2 mps 708 mmHg 37%
    15:00 +29°C° 0 mm 2 mps 708 mmHg 38%
    16:00 +29°C° 0 mm 3 mps 707 mmHg 38%
    17:00 +27°C° 0 mm 2 mps 707 mmHg 44%
    18:00 +25°C° 0 mm 2 mps 707 mmHg 49%
    19:00 +24°C° 0 mm 2 mps 707 mmHg 54%
    20:00 +23°C° 0 mm 1 mps 707 mmHg 57%
    21:00 +22°C° 0 mm 1 mps 707 mmHg 60%
    22:00 +21°C° 0 mm 1 mps 707 mmHg 63%
    23:00 +21°C° 0 mm 1 mps 706 mmHg 65%

    26 February, Wednesday

    Time Temperature Precipitation Wind Pressure Humidity
    00:00 +20°C° 0 mm 1 mps 705 mmHg 67%
    01:00 +20°C° 0 mm 1 mps 705 mmHg 69%
    02:00 +19°C° 0 mm 2 mps 704 mmHg 71%
    03:00 +19°C° 0 mm 2 mps 704 mmHg 72%
    04:00 +18°C° 0 mm 2 mps 704 mmHg 74%
    05:00 +19°C° 0 mm 3 mps 704 mmHg 72%
    06:00 +20°C° 0 mm 3 mps 704 mmHg 71%
    07:00 +20°C° 0 mm 4 mps 704 mmHg 70%
    08:00 +22°C° 0 mm 5 mps 705 mmHg 62%
    09:00 +24°C° 0 mm 6 mps 705 mmHg 55%
    10:00 +26°C° 0 mm 6 mps 705 mmHg 47%
    11:00 +27°C° 0 mm 6 mps 705 mmHg 40%
    12:00 +28°C° 0 mm 6 mps 705 mmHg 32%
    13:00 +29°C° 0 mm 7 mps 705 mmHg 24%
    14:00 +29°C° 0 mm 6 mps 705 mmHg 24%
    15:00 +28°C° 0 mm 6 mps 705 mmHg 24%
    16:00 +28°C° 0 mm 5 mps 705 mmHg 24%
    17:00 +25°C° 0 mm 4 mps 706 mmHg 34%
    18:00 +21°C° 0 mm 4 mps 706 mmHg 45%
    19:00 +18°C° 0 mm 3 mps 707 mmHg 55%
    20:00 +17°C° 0 mm 3 mps 707 mmHg 64%
    21:00 +16°C° 0 mm 3 mps 708 mmHg 74%
    22:00 +14°C° 0 mm 3 mps 709 mmHg 83%
    23:00 +14°C° 0 mm 3 mps 709 mmHg 81%

    27 February, Thursday

    Time Temperature Precipitation Wind Pressure Humidity
    00:00 +13°C° 0 mm 3 mps 709 mmHg 80%
    01:00 +13°C° 0 mm 3 mps 709 mmHg 78%
    02:00 +13°C° 0 mm 3 mps 709 mmHg 81%
    03:00 +13°C° 0 mm 2 mps 709 mmHg 84%
    04:00 +12°C° 0 mm 2 mps 708 mmHg 87%
    05:00 +13°C° 0 mm 2 mps 709 mmHg 85%
    06:00 +13°C° 0 mm 2 mps 709 mmHg 83%
    07:00 +13°C° 0 mm 2 mps 709 mmHg 82%
    08:00 +15°C° 0 mm 2 mps 709 mmHg 75%
    09:00 +17°C° 0 mm 2 mps 709 mmHg 69%
    10:00 +19°C° 0 mm 1 mps 710 mmHg 63%
    11:00 +21°C° 0 mm 2 mps 709 mmHg 53%
    12:00 +24°C° 0 mm 2 mps 709 mmHg 44%
    13:00 +26°C° 0 mm 3 mps 709 mmHg 35%
    14:00 +27°C° 0 mm 3 mps 708 mmHg 32%
    15:00 +28°C° 0 mm 3 mps 708 mmHg 30%
    16:00 +28°C° 0 mm 3 mps 707 mmHg 28%
    17:00 +26°C° 0 mm 2 mps 707 mmHg 34%
    18:00 +23°C° 0 mm 2 mps 707 mmHg 39%
    19:00 +21°C° 0 mm 1 mps 707 mmHg 45%
    20:00 +19°C° 0 mm 2 mps 707 mmHg 59%
    21:00 +17°C° 0 mm 2 mps 708 mmHg 73%
    22:00 +15°C° 0 mm 2 mps 708 mmHg 88%
    23:00 +15°C° 0 mm 1 mps 708 mmHg 89%
    Show more